Time,TemperatureF,DewpointF,PressureIn,WindDirection,WindDirectionDegrees,WindSpeedMPH,WindSpeedGustMPH,Humidity,HourlyPrecipIn,Conditions,Clouds,dailyrainin,SoftwareType,DateUTC
2013-04-07 00:00:00,44.2,5.7,29.09,SW,225,0.0,0.0,20,0.00,,---,0.00,VWS V13.01,2013-04-07 04:00:00,
2013-04-07 00:15:00,44.2,5.7,29.09,SW,225,0.0,0.0,20,0.00,,---,0.00,VWS V13.01,2013-04-07 04:15:00,
2013-04-07 00:16:00,44.2,5.7,29.09,SW,225,0.0,0.0,20,0.00,,---,0.00,VWS V13.01,2013-04-07 04:16:00,
2013-04-07 00:17:00,44.2,5.7,29.09,SW,225,0.0,0.0,20,0.00,,---,0.00,VWS V13.01,2013-04-07 04:17:00,
2013-04-07 00:21:00,44.2,5.7,29.09,SW,225,0.0,0.0,20,0.00,,---,0.00,VWS V13.01,2013-04-07 04:21:00,
2013-04-07 00:26:00,44.2,5.7,29.09,SW,225,0.0,0.0,20,0.00,,---,0.00,VWS V13.01,2013-04-07 04:26:00,
2013-04-07 00:32:00,44.4,5.9,29.09,SW,225,0.0,0.0,20,0.00,,---,0.00,VWS V13.01,2013-04-07 04:32:00,
2013-04-07 00:37:00,44.6,6.0,29.09,SW,225,0.0,0.0,20,0.00,,---,0.00,VWS V13.01,2013-04-07 04:37:00,
2013-04-07 00:42:00,44.8,6.2,29.09,SW,225,0.0,0.0,20,0.00,,---,0.00,VWS V13.01,2013-04-07 04:42:00,
2013-04-07 00:47:00,44.8,6.2,29.06,SW,225,0.0,0.0,20,0.00,,---,0.00,VWS V13.01,2013-04-07 04:47:00,
2013-04-07 00:52:00,44.6,6.0,29.06,SW,225,0.0,0.0,20,0.00,,---,0.00,VWS V13.01,2013-04-07 04:52:00,
2013-04-07 00:57:00,44.6,6.0,29.06,SW,225,0.0,0.0,20,0.00,,---,0.00,VWS V13.01,2013-04-07 04:57:00,
2013-04-07 01:03:00,44.6,6.0,29.06,SW,225,0.0,0.0,20,0.00,,---,0.00,VWS V13.01,2013-04-07 05:03:00,
2013-04-07 01:08:00,44.6,6.0,29.06,SW,225,0.0,0.0,20,0.00,,---,0.00,VWS V13.01,2013-04-07 05:08:00,
2013-04-07 01:13:00,44.4,5.9,29.06,SW,225,0.0,0.0,20,0.00,,---,0.00,VWS V13.01,2013-04-07 05:13:00,
2013-04-07 01:19:00,44.4,5.9,29.06,SW,225,0.0,0.0,20,0.00,,---,0.00,VWS V13.01,2013-04-07 05:19:00,
2013-04-07 01:24:00,44.4,5.9,29.06,SW,225,0.0,0.0,20,0.00,,---,0.00,VWS V13.01,2013-04-07 05:24:00,
2013-04-07 01:29:00,44.4,5.9,29.06,SW,225,0.0,0.0,20,0.00,,---,0.00,VWS V13.01,2013-04-07 05:29:00,
2013-04-07 01:34:00,44.4,5.9,29.06,SW,225,0.0,0.0,20,0.00,,---,0.00,VWS V13.01,2013-04-07 05:34:00,
2013-04-07 01:40:00,44.4,5.9,29.06,SW,225,0.0,0.0,20,0.00,,---,0.00,VWS V13.01,2013-04-07 05:40:00,
2013-04-07 01:45:00,44.2,5.7,29.09,SW,225,0.0,0.0,20,0.00,,---,0.00,VWS V13.01,2013-04-07 05:45:00,
2013-04-07 01:50:00,44.4,5.9,29.09,SW,225,0.0,0.0,20,0.00,,---,0.00,VWS V13.01,2013-04-07 05:50:00,
2013-04-07 01:55:00,44.4,5.9,29.09,SW,225,0.0,0.0,20,0.00,,---,0.00,VWS V13.01,2013-04-07 05:55:00,
2013-04-07 02:01:00,44.4,5.9,29.06,SW,225,0.0,0.0,20,0.00,,---,0.00,VWS V13.01,2013-04-07 06:01:00,
2013-04-07 02:07:00,44.2,5.7,29.06,SW,225,0.0,0.0,20,0.00,,---,0.00,VWS V13.01,2013-04-07 06:07:00,
2013-04-07 02:12:00,44.2,5.7,29.06,SW,225,0.0,0.0,20,0.00,,---,0.00,VWS V13.01,2013-04-07 06:12:00,
2013-04-07 02:17:00,44.2,5.7,29.06,SW,225,0.0,0.0,20,0.00,,---,0.00,VWS V13.01,2013-04-07 06:17:00,
2013-04-07 02:23:00,44.4,5.9,29.06,SW,225,0.0,0.0,20,0.00,,---,0.00,VWS V13.01,2013-04-07 06:23:00,
2013-04-07 02:28:00,44.4,5.9,29.06,SW,225,0.0,0.0,20,0.00,,---,0.00,VWS V13.01,2013-04-07 06:28:00,
2013-04-07 02:33:00,44.4,5.9,29.06,SW,225,0.0,0.0,20,0.00,,---,0.00,VWS V13.01,2013-04-07 06:33:00,
2013-04-07 02:38:00,44.6,6.0,29.06,SW,225,0.0,0.0,20,0.00,,---,0.00,VWS V13.01,2013-04-07 06:38:00,
2013-04-07 02:43:00,44.4,5.9,29.03,SW,225,0.0,0.0,20,0.00,,---,0.00,VWS V13.01,2013-04-07 06:43:00,
2013-04-07 02:49:00,44.2,5.7,29.03,SW,225,0.0,0.0,20,0.00,,---,0.00,VWS V13.01,2013-04-07 06:49:00,
2013-04-07 02:54:00,44.1,5.6,29.03,SW,225,0.0,0.0,20,0.00,,---,0.00,VWS V13.01,2013-04-07 06:54:00,
2013-04-07 03:00:00,44.2,5.7,29.06,SW,225,0.0,0.0,20,0.00,,---,0.00,VWS V13.01,2013-04-07 07:00:00,
2013-04-07 03:05:00,44.2,5.7,29.06,SW,225,0.0,0.0,20,0.00,,---,0.00,VWS V13.01,2013-04-07 07:05:00,
2013-04-07 03:10:00,44.1,5.6,29.06,SW,225,0.0,0.0,20,0.00,,---,0.00,VWS V13.01,2013-04-07 07:10:00,
2013-04-07 03:16:00,44.2,5.7,29.03,SW,225,0.0,0.0,20,0.00,,---,0.00,VWS V13.01,2013-04-07 07:16:00,
2013-04-07 03:21:00,44.2,5.7,29.03,SW,225,0.0,0.0,20,0.00,,---,0.00,VWS V13.01,2013-04-07 07:21:00,
2013-04-07 03:26:00,44.2,5.7,29.03,SW,225,0.0,0.0,20,0.00,,---,0.00,VWS V13.01,2013-04-07 07:26:00,
2013-04-07 03:32:00,44.2,5.7,29.06,SW,225,0.0,0.0,20,0.00,,---,0.00,VWS V13.01,2013-04-07 07:32:00,
2013-04-07 03:37:00,44.2,5.7,29.06,SW,225,0.0,0.0,20,0.00,,---,0.00,VWS V13.01,2013-04-07 07:37:00,
2013-04-07 03:42:00,44.2,5.7,29.06,SW,225,0.0,0.0,20,0.00,,---,0.00,VWS V13.01,2013-04-07 07:42:00,
2013-04-07 03:48:00,44.2,5.7,29.06,SW,225,0.0,0.0,20,0.00,,---,0.00,VWS V13.01,2013-04-07 07:48:00,
2013-04-07 03:53:00,44.1,5.6,29.06,SW,225,0.0,0.0,20,0.00,,---,0.00,VWS V13.01,2013-04-07 07:53:00,
2013-04-07 03:58:00,44.1,5.6,29.06,SW,225,0.0,0.0,20,0.00,,---,0.00,VWS V13.01,2013-04-07 07:58:00,
2013-04-07 04:03:00,44.1,5.6,29.06,SW,225,0.0,0.0,20,0.00,,---,0.00,VWS V13.01,2013-04-07 08:03:00,
2013-04-07 04:09:00,43.9,5.4,29.06,SW,225,0.0,0.0,20,0.00,,---,0.00,VWS V13.01,2013-04-07 08:09:00,
2013-04-07 04:14:00,44.1,5.6,29.03,SW,225,0.0,0.0,20,0.00,,---,0.00,VWS V13.01,2013-04-07 08:14:00,
2013-04-07 04:20:00,44.1,5.6,29.03,SW,225,0.0,0.0,20,0.00,,---,0.00,VWS V13.01,2013-04-07 08:20:00,
2013-04-07 04:25:00,43.9,5.4,29.03,SW,225,0.0,0.0,20,0.00,,---,0.00,VWS V13.01,2013-04-07 08:25:00,
2013-04-07 04:30:00,43.7,5.3,29.03,SW,225,0.0,0.0,20,0.00,,---,0.00,VWS V13.01,2013-04-07 08:30:00,
2013-04-07 04:36:00,43.9,5.4,29.03,SW,225,0.0,0.0,20,0.00,,---,0.00,VWS V13.01,2013-04-07 08:36:00,
2013-04-07 04:42:00,43.5,5.1,29.03,SSW,202,0.0,0.0,20,0.00,,---,0.00,VWS V13.01,2013-04-07 08:42:00,
2013-04-07 04:47:00,43.2,4.8,29.03,SSW,202,0.0,0.0,20,0.00,,---,0.00,VWS V13.01,2013-04-07 08:47:00,
2013-04-07 04:52:00,43.0,4.7,29.03,SSW,202,0.0,0.0,20,0.00,,---,0.00,VWS V13.01,2013-04-07 08:52:00,
2013-04-07 04:57:00,42.8,4.5,29.03,SSW,202,0.0,0.0,20,0.00,,---,0.00,VWS V13.01,2013-04-07 08:57:00,
2013-04-07 05:02:00,42.8,4.5,29.03,SSW,202,0.0,0.0,20,0.00,,---,0.00,VWS V13.01,2013-04-07 09:02:00,
2013-04-07 05:08:00,42.6,5.4,29.03,SSW,202,0.0,0.0,21,0.00,,---,0.00,VWS V13.01,2013-04-07 09:08:00,
2013-04-07 05:13:00,42.6,5.4,29.03,SSW,202,0.0,0.0,21,0.00,,---,0.00,VWS V13.01,2013-04-07 09:13:00,
2013-04-07 05:18:00,42.6,5.4,29.03,SSW,202,0.0,0.0,21,0.00,,---,0.00,VWS V13.01,2013-04-07 09:18:00,
2013-04-07 05:23:00,42.1,5.0,29.03,SSW,202,0.0,0.0,21,0.00,,---,0.00,VWS V13.01,2013-04-07 09:23:00,
2013-04-07 05:29:00,42.1,5.0,29.03,SSW,202,0.0,0.0,21,0.00,,---,0.00,VWS V13.01,2013-04-07 09:29:00,
2013-04-07 05:34:00,41.2,4.2,29.03,SSW,202,0.0,0.0,21,0.00,,---,0.00,VWS V13.01,2013-04-07 09:34:00,
2013-04-07 05:40:00,41.0,6.1,29.03,SSW,202,0.0,0.0,23,0.00,,---,0.00,VWS V13.01,2013-04-07 09:40:00,
2013-04-07 05:46:00,40.6,5.8,29.03,SSW,202,0.0,0.0,23,0.00,,---,0.00,VWS V13.01,2013-04-07 09:46:00,
2013-04-07 05:51:00,40.5,5.6,29.03,SSW,202,0.0,0.0,23,0.00,,---,0.00,VWS V13.01,2013-04-07 09:51:00,
2013-04-07 05:57:00,40.3,5.4,29.03,SSW,202,0.0,0.0,23,0.00,,---,0.00,VWS V13.01,2013-04-07 09:57:00,
2013-04-07 06:02:00,40.1,5.3,29.03,SSW,202,0.0,0.0,23,0.00,,---,0.00,VWS V13.01,2013-04-07 10:02:00,
2013-04-07 06:07:00,40.1,5.3,29.03,SSW,202,0.0,0.0,23,0.00,,---,0.00,VWS V13.01,2013-04-07 10:07:00,
2013-04-07 06:12:00,39.7,5.0,29.03,SSW,202,0.0,0.0,23,0.00,,---,0.00,VWS V13.01,2013-04-07 10:12:00,
2013-04-07 06:18:00,39.6,4.8,29.03,SSW,202,0.0,0.0,23,0.00,,---,0.00,VWS V13.01,2013-04-07 10:18:00,
2013-04-07 06:23:00,39.2,4.5,29.03,SSW,202,0.0,0.0,23,0.00,,---,0.00,VWS V13.01,2013-04-07 10:23:00,
2013-04-07 06:28:00,39.2,7.2,29.03,SSW,202,0.0,0.0,26,0.00,,---,0.00,VWS V13.01,2013-04-07 10:28:00,
2013-04-07 06:33:00,39.2,7.2,29.03,SSW,202,0.0,0.0,26,0.00,,---,0.00,VWS V13.01,2013-04-07 10:33:00,
2013-04-07 06:39:00,39.2,7.2,29.03,SSW,202,0.0,0.0,26,0.00,,---,0.00,VWS V13.01,2013-04-07 10:39:00,
2013-04-07 06:44:00,39.4,7.4,29.03,SSW,202,0.0,0.0,26,0.00,,---,0.00,VWS V13.01,2013-04-07 10:44:00,
2013-04-07 06:50:00,39.4,7.4,29.03,SSW,202,0.0,0.0,26,0.00,,---,0.00,VWS V13.01,2013-04-07 10:50:00,
2013-04-07 06:55:00,39.2,7.2,29.03,SSW,202,0.0,0.0,26,0.00,,---,0.00,VWS V13.01,2013-04-07 10:55:00,
2013-04-07 07:00:00,39.4,7.4,29.03,SSW,202,0.0,0.0,26,0.00,,---,0.00,VWS V13.01,2013-04-07 11:00:00,
2013-04-07 07:06:00,39.4,7.4,29.03,SSW,202,0.0,0.0,26,0.00,,---,0.00,VWS V13.01,2013-04-07 11:06:00,
2013-04-07 07:11:00,39.4,7.4,29.03,SSW,202,0.0,0.0,26,0.00,,---,0.00,VWS V13.01,2013-04-07 11:11:00,
2013-04-07 07:17:00,39.6,7.5,29.03,SSW,202,0.0,0.0,26,0.00,,---,0.00,VWS V13.01,2013-04-07 11:17:00,
2013-04-07 07:22:00,39.9,7.8,29.03,SSW,202,0.0,0.0,26,0.00,,---,0.00,VWS V13.01,2013-04-07 11:22:00,
2013-04-07 07:27:00,40.1,9.6,29.03,SSW,202,0.0,0.0,28,0.00,,---,0.00,VWS V13.01,2013-04-07 11:27:00,
2013-04-07 07:33:00,40.3,8.1,29.03,SSW,202,0.0,0.0,26,0.00,,---,0.00,VWS V13.01,2013-04-07 11:33:00,
2013-04-07 07:38:00,40.6,10.1,29.03,SSW,202,0.0,0.0,28,0.00,,---,0.00,VWS V13.01,2013-04-07 11:38:00,
2013-04-07 07:43:00,41.2,10.6,29.03,SSW,202,0.0,0.0,28,0.00,,---,0.00,VWS V13.01,2013-04-07 11:43:00,
2013-04-07 07:48:00,41.5,10.9,29.03,SSW,202,0.0,0.0,28,0.00,,---,0.00,VWS V13.01,2013-04-07 11:48:00,
2013-04-07 07:53:00,42.8,12.0,29.03,SSW,202,0.0,0.0,28,0.00,,---,0.00,VWS V13.01,2013-04-07 11:53:00,
2013-04-07 07:58:00,43.7,10.2,29.03,SSW,202,0.0,0.0,25,0.00,,---,0.00,VWS V13.01,2013-04-07 11:58:00,
2013-04-07 08:04:00,44.4,10.8,29.03,SSW,202,0.0,0.0,25,0.00,,---,0.00,VWS V13.01,2013-04-07 12:04:00,
2013-04-07 08:09:00,44.8,11.1,29.03,SSW,202,0.0,0.0,25,0.00,,---,0.00,VWS V13.01,2013-04-07 12:09:00,
2013-04-07 08:15:00,45.3,8.7,29.03,SSW,202,0.0,0.0,22,0.00,,---,0.00,VWS V13.01,2013-04-07 12:15:00,
2013-04-07 08:20:00,45.7,9.0,29.03,SSW,202,0.0,0.0,22,0.00,,---,0.00,VWS V13.01,2013-04-07 12:20:00,
2013-04-07 08:25:00,46.0,9.3,29.03,SSW,202,0.0,0.0,22,0.00,,---,0.00,VWS V13.01,2013-04-07 12:25:00,
2013-04-07 08:30:00,46.0,9.3,29.00,SSW,202,0.0,2.7,22,0.00,,---,0.00,VWS V13.01,2013-04-07 12:30:00,
2013-04-07 08:35:00,46.9,10.1,29.00,SSW,202,0.0,2.7,22,0.00,,---,0.00,VWS V13.01,2013-04-07 12:35:00,
2013-04-07 08:41:00,47.1,10.2,29.00,SSW,202,0.0,2.7,22,0.00,,---,0.00,VWS V13.01,2013-04-07 12:41:00,
2013-04-07 08:46:00,47.7,10.7,29.03,SSW,202,0.0,0.0,22,0.00,,---,0.00,VWS V13.01,2013-04-07 12:46:00,
2013-04-07 08:52:00,48.6,10.4,29.03,SSW,202,3.1,3.1,21,0.00,,---,0.00,VWS V13.01,2013-04-07 12:52:00,
2013-04-07 08:57:00,49.1,10.9,29.00,SSW,202,3.1,4.9,21,0.00,,---,0.00,VWS V13.01,2013-04-07 12:57:00,
2013-04-07 09:02:00,49.1,10.9,29.00,South,180,3.6,5.4,21,0.00,,---,0.00,VWS V13.01,2013-04-07 13:02:00,
2013-04-07 09:08:00,50.9,12.4,29.00,South,180,4.0,5.4,21,0.00,,---,0.00,VWS V13.01,2013-04-07 13:08:00,
2013-04-07 09:13:00,51.3,12.7,29.00,SSE,158,4.0,5.4,21,0.00,,---,0.00,VWS V13.01,2013-04-07 13:13:00,
2013-04-07 09:18:00,51.3,12.7,29.00,South,180,5.4,5.8,21,0.00,,---,0.00,VWS V13.01,2013-04-07 13:18:00,
2013-04-07 09:24:00,51.1,12.5,29.00,South,180,4.0,4.0,21,0.00,,---,0.00,VWS V13.01,2013-04-07 13:24:00,
2013-04-07 09:29:00,51.1,12.5,29.00,South,180,3.6,4.0,21,0.00,,---,0.00,VWS V13.01,2013-04-07 13:29:00,
2013-04-07 09:34:00,51.3,12.7,29.00,South,180,2.7,4.0,21,0.00,,---,0.00,VWS V13.01,2013-04-07 13:34:00,
2013-04-07 09:39:00,51.3,12.7,29.00,South,180,2.7,4.0,21,0.00,,---,0.00,VWS V13.01,2013-04-07 13:39:00,
2013-04-07 09:44:00,51.8,13.1,29.00,SW,225,3.1,3.6,21,0.00,,---,0.00,VWS V13.01,2013-04-07 13:44:00,
2013-04-07 09:50:00,51.8,13.1,29.00,South,180,6.3,7.2,21,0.00,,---,0.00,VWS V13.01,2013-04-07 13:50:00,
2013-04-07 09:55:00,51.8,13.1,29.00,South,180,3.1,7.2,21,0.00,,---,0.00,VWS V13.01,2013-04-07 13:55:00,
2013-04-07 10:00:00,51.8,13.1,29.00,South,180,0.0,7.2,21,0.00,,---,0.00,VWS V13.01,2013-04-07 14:00:00,
2013-04-07 10:05:00,52.3,13.6,29.00,South,180,5.4,5.4,21,0.00,,---,0.00,VWS V13.01,2013-04-07 14:05:00,
2013-04-07 10:10:00,52.7,13.9,29.00,SW,225,2.7,5.8,21,0.00,,---,0.00,VWS V13.01,2013-04-07 14:10:00,
2013-04-07 10:16:00,53.1,14.2,29.00,SW,225,3.6,6.3,21,0.00,,---,0.00,VWS V13.01,2013-04-07 14:16:00,
2013-04-07 10:21:00,53.2,14.3,29.00,SW,225,2.7,3.1,21,0.00,,---,0.00,VWS V13.01,2013-04-07 14:21:00,
2013-04-07 10:26:00,53.2,14.3,29.00,SW,225,0.0,4.0,21,0.00,,---,0.00,VWS V13.01,2013-04-07 14:26:00,
2013-04-07 10:32:00,53.2,14.3,29.00,SW,225,0.0,4.0,21,0.00,,---,0.00,VWS V13.01,2013-04-07 14:32:00,
2013-04-07 10:37:00,55.4,15.0,29.00,SSW,202,3.6,4.9,20,0.00,,---,0.00,VWS V13.01,2013-04-07 14:37:00,
2013-04-07 10:42:00,55.9,15.5,29.00,SSE,158,5.4,5.4,20,0.00,,---,0.00,VWS V13.01,2013-04-07 14:42:00,
2013-04-07 10:48:00,56.3,15.8,29.00,South,180,4.0,5.4,20,0.00,,---,0.00,VWS V13.01,2013-04-07 14:48:00,
2013-04-07 10:53:00,56.8,16.2,29.00,NE,45,2.7,7.6,20,0.00,,---,0.00,VWS V13.01,2013-04-07 14:53:00,
2013-04-07 10:59:00,57.6,15.6,29.00,WNW,292,3.1,7.6,19,0.00,,---,0.00,VWS V13.01,2013-04-07 14:59:00,
2013-04-07 11:05:00,58.1,16.1,29.00,SE,135,4.0,5.8,19,0.00,,---,0.00,VWS V13.01,2013-04-07 15:05:00,
2013-04-07 11:10:00,59.0,16.8,29.00,SE,135,2.2,5.8,19,0.00,,---,0.00,VWS V13.01,2013-04-07 15:10:00,
2013-04-07 11:15:00,59.4,17.1,28.97,SSW,202,7.6,7.6,19,0.00,,---,0.00,VWS V13.01,2013-04-07 15:15:00,
2013-04-07 11:20:00,59.7,17.4,28.97,South,180,4.5,8.1,19,0.00,,---,0.00,VWS V13.01,2013-04-07 15:20:00,
2013-04-07 11:27:00,59.7,17.4,28.97,NE,45,7.2,7.2,19,0.00,,---,0.00,VWS V13.01,2013-04-07 15:27:00,
2013-04-07 11:32:00,59.5,17.3,28.97,SE,135,2.7,7.2,19,0.00,,---,0.00,VWS V13.01,2013-04-07 15:32:00,
2013-04-07 11:37:00,59.4,17.1,28.97,South,180,5.4,8.3,19,0.00,,---,0.00,VWS V13.01,2013-04-07 15:37:00,
2013-04-07 11:43:00,59.7,17.4,28.97,SSE,158,2.7,5.8,19,0.00,,---,0.00,VWS V13.01,2013-04-07 15:43:00,
2013-04-07 11:48:00,60.6,18.2,28.97,South,180,5.4,5.8,19,0.00,,---,0.00,VWS V13.01,2013-04-07 15:48:00,
2013-04-07 11:53:00,61.0,18.5,28.97,WNW,292,2.7,7.6,19,0.00,,---,0.00,VWS V13.01,2013-04-07 15:53:00,
2013-04-07 11:59:00,61.9,19.2,28.97,South,180,4.9,7.6,19,0.00,,---,0.00,VWS V13.01,2013-04-07 15:59:00,
2013-04-07 12:04:00,61.5,18.9,28.97,SW,225,5.4,6.3,19,0.00,,---,0.00,VWS V13.01,2013-04-07 16:04:00,
2013-04-07 12:10:00,62.1,19.3,28.97,South,180,8.3,8.3,19,0.00,,---,0.00,VWS V13.01,2013-04-07 16:10:00,
2013-04-07 12:15:00,61.7,19.0,28.97,SE,135,4.9,8.7,19,0.00,,---,0.00,VWS V13.01,2013-04-07 16:15:00,
2013-04-07 12:20:00,61.5,18.9,28.97,South,180,7.2,8.7,19,0.00,,---,0.00,VWS V13.01,2013-04-07 16:20:00,
2013-04-07 12:27:00,61.5,18.9,28.97,South,180,0.0,7.2,19,0.00,,---,0.00,VWS V13.01,2013-04-07 16:27:00,
2013-04-07 12:32:00,61.3,18.8,28.97,SSE,158,4.9,7.2,19,0.00,,---,0.00,VWS V13.01,2013-04-07 16:32:00,
2013-04-07 12:37:00,61.3,18.8,28.97,West,270,3.6,7.2,19,0.00,,---,0.00,VWS V13.01,2013-04-07 16:37:00,
2013-04-07 12:43:00,61.3,18.8,28.97,South,180,5.8,5.8,19,0.00,,---,0.00,VWS V13.01,2013-04-07 16:43:00,
2013-04-07 12:48:00,61.3,18.8,28.97,WSW,248,2.2,5.8,19,0.00,,---,0.00,VWS V13.01,2013-04-07 16:48:00,
2013-04-07 12:53:00,61.3,18.8,28.97,South,180,4.0,5.8,19,0.00,,---,0.00,VWS V13.01,2013-04-07 16:53:00,
2013-04-07 12:59:00,61.7,19.0,28.94,SE,135,3.6,5.8,19,0.00,,---,0.00,VWS V13.01,2013-04-07 16:59:00,
2013-04-07 13:05:00,61.9,19.2,28.94,South,180,3.1,4.9,19,0.00,,---,0.00,VWS V13.01,2013-04-07 17:05:00,
2013-04-07 13:10:00,62.2,19.5,28.94,South,180,2.2,5.4,19,0.00,,---,0.00,VWS V13.01,2013-04-07 17:10:00,
2013-04-07 13:15:00,62.4,19.6,28.94,South,180,3.1,5.4,19,0.00,,---,0.00,VWS V13.01,2013-04-07 17:15:00,
2013-04-07 13:21:00,62.6,18.5,28.94,South,180,4.9,5.4,18,0.00,,---,0.00,VWS V13.01,2013-04-07 17:21:00,
2013-04-07 13:26:00,62.8,18.7,28.94,SW,225,2.2,5.4,18,0.00,,---,0.00,VWS V13.01,2013-04-07 17:26:00,
2013-04-07 13:32:00,63.1,19.0,28.94,South,180,3.1,5.4,18,0.00,,---,0.00,VWS V13.01,2013-04-07 17:32:00,
2013-04-07 13:37:00,63.3,19.1,28.94,South,180,6.3,6.3,18,0.00,,---,0.00,VWS V13.01,2013-04-07 17:37:00,
2013-04-07 13:42:00,64.6,20.1,28.94,SSE,158,4.0,4.9,18,0.00,,---,0.00,VWS V13.01,2013-04-07 17:42:00,
2013-04-07 13:48:00,65.5,20.9,28.94,SW,225,3.6,4.9,18,0.00,,---,0.00,VWS V13.01,2013-04-07 17:48:00,
2013-04-07 13:53:00,65.7,21.0,28.94,SW,225,5.4,7.2,18,0.00,,---,0.00,VWS V13.01,2013-04-07 17:53:00,
2013-04-07 13:58:00,66.4,20.3,28.94,South,180,7.2,7.2,17,0.00,,---,0.00,VWS V13.01,2013-04-07 17:58:00,
2013-04-07 14:03:00,66.2,20.1,28.94,South,180,5.8,8.1,17,0.00,,---,0.00,VWS V13.01,2013-04-07 18:03:00,
2013-04-07 14:08:00,66.6,20.4,28.94,South,180,4.0,8.1,17,0.00,,---,0.00,VWS V13.01,2013-04-07 18:08:00,
2013-04-07 14:13:00,66.6,20.4,28.94,South,180,6.7,8.1,17,0.00,,---,0.00,VWS V13.01,2013-04-07 18:13:00,
2013-04-07 14:18:00,66.4,20.3,28.94,SE,135,8.1,8.1,17,0.00,,---,0.00,VWS V13.01,2013-04-07 18:18:00,
2013-04-07 14:25:00,66.6,20.4,28.94,South,180,5.4,7.6,17,0.00,,---,0.00,VWS V13.01,2013-04-07 18:25:00,
2013-04-07 14:30:00,66.6,20.4,28.94,West,270,4.0,8.3,17,0.00,,---,0.00,VWS V13.01,2013-04-07 18:30:00,
2013-04-07 14:35:00,66.6,20.4,28.94,SE,135,4.0,8.3,17,0.00,,---,0.00,VWS V13.01,2013-04-07 18:35:00,
2013-04-07 14:41:00,66.6,20.4,28.94,West,270,2.7,8.3,17,0.00,,---,0.00,VWS V13.01,2013-04-07 18:41:00,
2013-04-07 14:46:00,66.7,20.6,28.94,SSE,158,6.7,6.7,17,0.00,,---,0.00,VWS V13.01,2013-04-07 18:46:00,
2013-04-07 14:52:00,66.6,20.4,28.94,South,180,2.7,6.7,17,0.00,,---,0.00,VWS V13.01,2013-04-07 18:52:00,
2013-04-07 14:57:00,67.1,20.9,28.91,West,270,3.1,6.7,17,0.00,,---,0.00,VWS V13.01,2013-04-07 18:57:00,
2013-04-07 15:03:00,67.3,21.0,28.91,SE,135,7.6,7.6,17,0.00,,---,0.00,VWS V13.01,2013-04-07 19:03:00,
2013-04-07 15:08:00,67.6,21.3,28.91,SW,225,5.8,7.6,17,0.00,,---,0.00,VWS V13.01,2013-04-07 19:08:00,
2013-04-07 15:14:00,69.4,22.8,28.91,South,180,6.3,12.3,17,0.00,,---,0.00,VWS V13.01,2013-04-07 19:14:00,
2013-04-07 15:19:00,69.6,22.9,28.91,South,180,4.9,12.3,17,0.00,,---,0.00,VWS V13.01,2013-04-07 19:19:00,
2013-04-07 15:25:00,70.3,23.5,28.91,South,180,5.8,5.8,17,0.00,,---,0.00,VWS V13.01,2013-04-07 19:25:00,
2013-04-07 15:30:00,70.3,23.5,28.91,SW,225,2.7,5.8,17,0.00,,---,0.00,VWS V13.01,2013-04-07 19:30:00,
2013-04-07 15:35:00,72.3,23.6,28.91,NW,315,7.6,8.1,16,0.00,,---,0.00,VWS V13.01,2013-04-07 19:35:00,
2013-04-07 15:40:00,71.4,24.4,28.91,South,180,3.6,8.7,17,0.00,,---,0.00,VWS V13.01,2013-04-07 19:40:00,
2013-04-07 15:45:00,71.1,24.1,28.91,South,180,4.9,6.3,17,0.00,,---,0.00,VWS V13.01,2013-04-07 19:45:00,
2013-04-07 15:52:00,70.7,23.8,28.91,SSE,158,5.4,6.3,17,0.00,,---,0.00,VWS V13.01,2013-04-07 19:52:00,
2013-04-07 15:57:00,70.9,23.9,28.91,South,180,0.0,10.1,17,0.00,,---,0.00,VWS V13.01,2013-04-07 19:57:00,
2013-04-07 16:02:00,72.0,23.4,28.91,NE,45,4.0,4.9,16,0.00,,---,0.00,VWS V13.01,2013-04-07 20:02:00,
2013-04-07 16:11:00,72.7,23.9,28.91,SSE,158,4.0,4.0,16,0.00,,---,0.00,VWS V13.01,2013-04-07 20:11:00,
2013-04-07 16:16:00,72.1,23.5,28.91,East,90,2.7,6.3,16,0.00,,---,0.00,VWS V13.01,2013-04-07 20:16:00,
2013-04-07 16:22:00,71.4,24.4,28.91,South,180,0.0,3.1,17,0.00,,---,0.00,VWS V13.01,2013-04-07 20:22:00,
2013-04-07 16:27:00,70.3,23.5,28.91,South,180,4.0,6.3,17,0.00,,---,0.00,VWS V13.01,2013-04-07 20:27:00,
2013-04-07 16:33:00,70.5,23.6,28.91,WSW,248,2.7,6.3,17,0.00,,---,0.00,VWS V13.01,2013-04-07 20:33:00,
2013-04-07 16:38:00,70.9,23.9,28.91,SSE,158,5.4,10.1,17,0.00,,---,0.00,VWS V13.01,2013-04-07 20:38:00,
2013-04-07 16:43:00,70.9,23.9,28.91,South,180,4.9,5.4,17,0.00,,---,0.00,VWS V13.01,2013-04-07 20:43:00,
2013-04-07 16:48:00,71.8,23.2,28.91,SSW,202,3.1,5.4,16,0.00,,---,0.00,VWS V13.01,2013-04-07 20:48:00,
2013-04-07 16:54:00,71.2,24.2,28.91,South,180,8.1,8.1,17,0.00,,---,0.00,VWS V13.01,2013-04-07 20:54:00,
2013-04-07 16:59:00,70.9,23.9,28.91,SW,225,7.2,8.1,17,0.00,,---,0.00,VWS V13.01,2013-04-07 20:59:00,
2013-04-07 17:05:00,70.3,23.5,28.91,South,180,3.6,5.4,17,0.00,,---,0.00,VWS V13.01,2013-04-07 21:05:00,
2013-04-07 17:10:00,70.0,23.2,28.91,South,180,3.1,7.6,17,0.00,,---,0.00,VWS V13.01,2013-04-07 21:10:00,
2013-04-07 17:15:00,69.8,23.1,28.91,SSE,158,2.7,7.6,17,0.00,,---,0.00,VWS V13.01,2013-04-07 21:15:00,
2013-04-07 17:20:00,69.8,23.1,28.91,South,180,4.0,7.6,17,0.00,,---,0.00,VWS V13.01,2013-04-07 21:20:00,
2013-04-07 17:25:00,69.6,22.9,28.91,SSE,158,3.6,4.0,17,0.00,,---,0.00,VWS V13.01,2013-04-07 21:25:00,
2013-04-07 17:31:00,69.6,22.9,28.91,WSW,248,7.6,7.6,17,0.00,,---,0.00,VWS V13.01,2013-04-07 21:31:00,
2013-04-07 17:36:00,70.5,23.6,28.91,SSW,202,4.0,7.6,17,0.00,,---,0.00,VWS V13.01,2013-04-07 21:36:00,
2013-04-07 17:41:00,70.5,23.6,28.91,West,270,2.7,7.6,17,0.00,,---,0.00,VWS V13.01,2013-04-07 21:41:00,
2013-04-07 17:46:00,70.0,23.2,28.91,South,180,2.2,7.2,17,0.00,,---,0.00,VWS V13.01,2013-04-07 21:46:00,
2013-04-07 17:51:00,69.8,23.1,28.91,SE,135,7.2,7.2,17,0.00,,---,0.00,VWS V13.01,2013-04-07 21:51:00,
2013-04-07 17:57:00,69.8,23.1,28.91,South,180,5.8,7.2,17,0.00,,---,0.00,VWS V13.01,2013-04-07 21:57:00,
2013-04-07 18:02:00,69.6,22.9,28.91,SW,225,0.0,3.6,17,0.00,,---,0.00,VWS V13.01,2013-04-07 22:02:00,
2013-04-07 18:07:00,69.6,22.9,28.91,South,180,6.7,8.7,17,0.00,,---,0.00,VWS V13.01,2013-04-07 22:07:00,
2013-04-07 18:12:00,69.4,22.8,28.91,SE,135,4.9,8.7,17,0.00,,---,0.00,VWS V13.01,2013-04-07 22:12:00,
2013-04-07 18:18:00,69.3,22.6,28.91,SSE,158,4.0,8.7,17,0.00,,---,0.00,VWS V13.01,2013-04-07 22:18:00,
2013-04-07 18:23:00,69.3,22.6,28.91,South,180,2.7,4.5,17,0.00,,---,0.00,VWS V13.01,2013-04-07 22:23:00,
2013-04-07 18:28:00,69.3,22.6,28.91,West,270,0.0,4.9,17,0.00,,---,0.00,VWS V13.01,2013-04-07 22:28:00,
2013-04-07 18:33:00,69.3,22.6,28.91,South,180,4.0,4.9,17,0.00,,---,0.00,VWS V13.01,2013-04-07 22:33:00,
2013-04-07 18:38:00,69.3,22.6,28.91,SW,225,3.1,5.4,17,0.00,,---,0.00,VWS V13.01,2013-04-07 22:38:00,
2013-04-07 18:44:00,69.1,22.5,28.91,SSW,202,0.0,4.0,17,0.00,,---,0.00,VWS V13.01,2013-04-07 22:44:00,
2013-04-07 18:49:00,68.7,22.2,28.91,SSE,158,3.1,4.0,17,0.00,,---,0.00,VWS V13.01,2013-04-07 22:49:00,
2013-04-07 18:54:00,68.7,22.2,28.91,West,270,8.3,8.3,17,0.00,,---,0.00,VWS V13.01,2013-04-07 22:54:00,
2013-04-07 18:59:00,68.4,21.9,28.91,South,180,6.7,8.3,17,0.00,,---,0.00,VWS V13.01,2013-04-07 22:59:00,
2013-04-07 19:05:00,68.2,21.7,28.91,South,180,5.4,6.3,17,0.00,,---,0.00,VWS V13.01,2013-04-07 23:05:00,
2013-04-07 19:10:00,68.2,21.7,28.91,South,180,3.1,6.3,17,0.00,,---,0.00,VWS V13.01,2013-04-07 23:10:00,
2013-04-07 19:15:00,67.6,21.3,28.94,South,180,2.7,6.3,17,0.00,,---,0.00,VWS V13.01,2013-04-07 23:15:00,
2013-04-07 19:21:00,67.5,21.2,28.94,West,270,4.0,6.3,17,0.00,,---,0.00,VWS V13.01,2013-04-07 23:21:00,
2013-04-07 19:26:00,67.3,21.0,28.94,South,180,0.0,7.2,17,0.00,,---,0.00,VWS V13.01,2013-04-07 23:26:00,
2013-04-07 19:32:00,67.1,20.9,28.91,SW,225,4.9,8.7,17,0.00,,---,0.00,VWS V13.01,2013-04-07 23:32:00,
2013-04-07 19:37:00,66.9,20.7,28.91,South,180,2.7,8.7,17,0.00,,---,0.00,VWS V13.01,2013-04-07 23:37:00,
2013-04-07 19:42:00,66.4,20.3,28.91,South,180,0.0,2.7,17,0.00,,---,0.00,VWS V13.01,2013-04-07 23:42:00,
2013-04-07 19:47:00,66.6,20.4,28.94,SSW,202,4.9,9.6,17,0.00,,---,0.00,VWS V13.01,2013-04-07 23:47:00,
2013-04-07 19:52:00,66.6,20.4,28.94,South,180,3.6,9.6,17,0.00,,---,0.00,VWS V13.01,2013-04-07 23:52:00,
2013-04-07 19:57:00,66.2,20.1,28.94,WSW,248,3.6,9.6,17,0.00,,---,0.00,VWS V13.01,2013-04-07 23:57:00,
2013-04-07 20:02:00,66.0,21.3,28.94,West,270,3.1,5.4,18,0.00,,---,0.00,VWS V13.01,2013-04-08 00:02:00,
2013-04-07 20:08:00,65.5,20.9,28.94,West,270,3.6,5.4,18,0.00,,---,0.00,VWS V13.01,2013-04-08 00:08:00,
2013-04-07 20:13:00,64.8,20.3,28.94,West,270,3.6,5.4,18,0.00,,---,0.00,VWS V13.01,2013-04-08 00:13:00,
2013-04-07 20:18:00,64.6,20.1,28.94,South,180,2.2,5.4,18,0.00,,---,0.00,VWS V13.01,2013-04-08 00:18:00,
2013-04-07 20:25:00,64.0,19.7,28.94,SSW,202,0.0,3.6,18,0.00,,---,0.00,VWS V13.01,2013-04-08 00:25:00,
2013-04-07 20:31:00,64.0,19.7,28.94,SW,225,0.0,3.6,18,0.00,,---,0.00,VWS V13.01,2013-04-08 00:31:00,
2013-04-07 20:36:00,63.1,19.0,28.94,SE,135,0.0,3.6,18,0.00,,---,0.00,VWS V13.01,2013-04-08 00:36:00,
2013-04-07 20:41:00,62.4,19.6,28.94,SW,225,2.7,3.6,19,0.00,,---,0.00,VWS V13.01,2013-04-08 00:41:00,
2013-04-07 20:46:00,62.2,19.5,28.94,SW,225,0.0,3.1,19,0.00,,---,0.00,VWS V13.01,2013-04-08 00:46:00,
2013-04-07 20:51:00,62.2,19.5,28.94,SW,225,0.0,3.1,19,0.00,,---,0.00,VWS V13.01,2013-04-08 00:51:00,
2013-04-07 20:56:00,61.5,18.9,28.94,SW,225,0.0,3.1,19,0.00,,---,0.00,VWS V13.01,2013-04-08 00:56:00,
2013-04-07 21:01:00,61.3,18.8,28.97,SW,225,0.0,0.0,19,0.00,,---,0.00,VWS V13.01,2013-04-08 01:01:00,
2013-04-07 21:08:00,60.6,18.2,28.97,SW,225,0.0,0.0,19,0.00,,---,0.00,VWS V13.01,2013-04-08 01:08:00,
2013-04-07 21:13:00,60.3,17.9,28.97,SW,225,0.0,0.0,19,0.00,,---,0.00,VWS V13.01,2013-04-08 01:13:00,
2013-04-07 21:18:00,60.3,17.9,28.97,SW,225,0.0,0.0,19,0.00,,---,0.00,VWS V13.01,2013-04-08 01:18:00,
2013-04-07 21:23:00,60.4,18.0,28.97,SW,225,0.0,0.0,19,0.00,,---,0.00,VWS V13.01,2013-04-08 01:23:00,
2013-04-07 21:29:00,60.4,18.0,28.97,SW,225,0.0,0.0,19,0.00,,---,0.00,VWS V13.01,2013-04-08 01:29:00,
2013-04-07 21:34:00,60.6,18.2,28.97,SW,225,0.0,0.0,19,0.00,,---,0.00,VWS V13.01,2013-04-08 01:34:00,
2013-04-07 21:40:00,61.3,18.8,28.97,SW,225,0.0,0.0,19,0.00,,---,0.00,VWS V13.01,2013-04-08 01:40:00,
2013-04-07 21:45:00,61.7,19.0,29.00,NW,315,4.9,5.8,19,0.00,,---,0.00,VWS V13.01,2013-04-08 01:45:00,
2013-04-07 21:50:00,63.0,18.8,29.00,North,0,2.2,5.8,18,0.00,,---,0.00,VWS V13.01,2013-04-08 01:50:00,
2013-04-07 21:55:00,63.0,18.8,29.00,North,0,0.0,5.8,18,0.00,,---,0.00,VWS V13.01,2013-04-08 01:55:00,
2013-04-07 22:00:00,63.0,18.8,29.00,North,0,0.0,5.8,18,0.00,,---,0.00,VWS V13.01,2013-04-08 02:00:00,
2013-04-07 22:06:00,63.7,19.4,29.00,North,0,2.7,3.6,18,0.00,,---,0.00,VWS V13.01,2013-04-08 02:06:00,
2013-04-07 22:12:00,63.0,18.8,29.00,West,270,0.0,3.6,18,0.00,,---,0.00,VWS V13.01,2013-04-08 02:12:00,
2013-04-07 22:17:00,63.0,18.8,29.00,NNW,338,0.0,5.4,18,0.00,,---,0.00,VWS V13.01,2013-04-08 02:17:00,
2013-04-07 22:22:00,63.0,18.8,29.00,NNW,338,3.1,3.1,18,0.00,,---,0.00,VWS V13.01,2013-04-08 02:22:00,
2013-04-07 22:27:00,63.0,22.5,29.00,NNW,338,2.2,3.1,21,0.00,,---,0.00,VWS V13.01,2013-04-08 02:27:00,
2013-04-07 22:32:00,62.2,21.9,28.97,NNW,338,0.0,3.1,21,0.00,,---,0.00,VWS V13.01,2013-04-08 02:32:00,
2013-04-07 22:38:00,61.7,21.4,28.97,NNW,338,0.0,3.1,21,0.00,,---,0.00,VWS V13.01,2013-04-08 02:38:00,
2013-04-07 22:44:00,59.7,20.8,28.97,NNW,338,0.0,0.0,22,0.00,,---,0.00,VWS V13.01,2013-04-08 02:44:00,
2013-04-07 22:49:00,59.2,22.4,28.97,NNW,338,0.0,0.0,24,0.00,,---,0.00,VWS V13.01,2013-04-08 02:49:00,
2013-04-07 22:55:00,58.3,22.6,28.97,NNW,338,0.0,0.0,25,0.00,,---,0.00,VWS V13.01,2013-04-08 02:55:00,
2013-04-07 23:00:00,57.7,22.2,28.97,NNW,338,0.0,0.0,25,0.00,,---,0.00,VWS V13.01,2013-04-08 03:00:00,
2013-04-07 23:07:00,57.6,22.0,28.97,NNW,338,0.0,0.0,25,0.00,,---,0.00,VWS V13.01,2013-04-08 03:07:00,
2013-04-07 23:12:00,57.6,22.0,28.97,NNW,338,0.0,0.0,25,0.00,,---,0.00,VWS V13.01,2013-04-08 03:12:00,
2013-04-07 23:17:00,57.0,22.5,28.97,NNW,338,0.0,0.0,26,0.00,,---,0.00,VWS V13.01,2013-04-08 03:17:00,
2013-04-07 23:22:00,56.8,22.3,28.97,NNW,338,0.0,0.0,26,0.00,,---,0.00,VWS V13.01,2013-04-08 03:22:00,
2013-04-07 23:27:00,56.5,22.9,28.97,NNW,338,0.0,0.0,27,0.00,,---,0.00,VWS V13.01,2013-04-08 03:27:00,
2013-04-07 23:33:00,56.5,22.9,28.97,NNW,338,0.0,0.0,27,0.00,,---,0.00,VWS V13.01,2013-04-08 03:33:00,
2013-04-07 23:38:00,56.7,23.1,28.97,NNW,338,0.0,0.0,27,0.00,,---,0.00,VWS V13.01,2013-04-08 03:38:00,
2013-04-07 23:44:00,56.7,23.1,28.97,NNW,338,0.0,0.0,27,0.00,,---,0.00,VWS V13.01,2013-04-08 03:44:00,
2013-04-07 23:49:00,57.0,24.3,28.97,NNW,338,0.0,0.0,28,0.00,,---,0.00,VWS V13.01,2013-04-08 03:49:00,
2013-04-07 23:54:00,57.0,24.3,28.97,NNW,338,0.0,0.0,28,0.00,,---,0.00,VWS V13.01,2013-04-08 03:54:00,
2013-04-07 23:59:00,57.7,24.0,28.97,NNW,338,0.0,0.0,27,0.00,,---,0.00,VWS V13.01,2013-04-08 03:59:00,